[Iaude] MPEC F156: 2019 FQ1 [a=0.79,e=0.35,i=11.0,H=27.3]

mpec at mpcdb1.cfa.harvard.edu mpec at mpcdb1.cfa.harvard.edu
Sun Mar 31 19:43:16 EDT 2019


M.P.E.C. 2019-F156                               Issued 2019 Mar. 31, 23:39 UT
 
     The Minor Planet Electronic Circulars contain information on unusual
         minor planets and routine data on comets.  They are published
    on behalf of Division F of the International Astronomical Union by the
          Minor Planet Center, Smithsonian Astrophysical Observatory,
                          Cambridge, MA 02138, U.S.A.

             Prepared using the Tamkin Foundation Computer Network

                              MPC at CFA.HARVARD.EDU
            URL https://www.minorplanetcenter.net/    ISSN 1523-6714


                                   2019 FQ1
 
Observations:
     K19F01Q* C2019 03 29.25216 11 58 02.03 -03 30 16.7          20.6 GVEF156G96
     K19F01Q  C2019 03 29.25776 11 57 54.00 -03 27 31.7                VEF156G96
     K19F01Q  C2019 03 29.26335 11 57 46.26 -03 24 51.9          19.8 GVEF156G96
     K19F01Q  C2019 03 29.26895 11 57 38.11 -03 22 06.6          20.5 GVEF156G96
     K19F01Q  C2019 03 29.31548011 56 30.39 -02 59 26.8          19.8 GVEF156H01
     K19F01Q  C2019 03 29.32136711 56 21.94 -02 56 32.7          20.4 GVEF156H01
     K19F01Q  C2019 03 29.32896511 56 11.01 -02 52 47.7          20.5 GVEF156H01
     K19F01Q  C2019 03 29.33678211 55 59.78 -02 48 55.9          20.1 GVEF156H01
     K19F01Q  C2019 03 29.36169 11 55 24.82 -02 36 27.9          19.9 GVEF156I52
     K19F01Q  C2019 03 29.36319 11 55 22.72 -02 35 43.6          19.9 GVEF156I52
     K19F01Q  C2019 03 29.36394 11 55 21.65 -02 35 21.1          19.6 GVEF156I52
     K19F01Q  C2019 03 29.84010 11 44 34.69 +01 30 48.6          20.4 VVEF156033
     K19F01Q  C2019 03 29.84057 11 44 33.97 +01 31 03.9          20.4 VVEF156033
     K19F01Q  C2019 03 29.84104 11 44 33.28 +01 31 18.8          20.3 VVEF156033
     K19F01Q  C2019 03 29.84152 11 44 32.55 +01 31 34.5          20.2 VVEF156033
     K19F01Q  C2019 03 29.84244 11 44 31.13 +01 32 04.7          20.4 VVEF156033
     K19F01Q  C2019 03 29.84292 11 44 30.38 +01 32 20.3          20.5 VVEF156033
     K19F01Q  C2019 03 29.84338 11 44 29.68 +01 32 35.1          20.3 VVEF156033
     K19F01Q  C2019 03 29.84385 11 44 28.97 +01 32 50.4          20.5 VVEF156033
     K19F01Q KC2019 03 29.86376711 43 58.70 +01 44 03.5          20.3 GVEF156L01
     K19F01Q pC2019 03 29.86416411 43 58.04 +01 44 16.8          20.3 GVEF156L01
     K19F01Q  C2019 03 29.86561 11 43 55.52 +01 44 40.4          20.2 VVEF156033
     K19F01Q  C2019 03 29.86608 11 43 54.79 +01 44 55.6          19.9 VVEF156033
     K19F01Q  C2019 03 29.86655 11 43 54.08 +01 45 11.0          19.9 VVEF156033
     K19F01Q  C2019 03 29.86701 11 43 53.34 +01 45 26.6          19.8 VVEF156033
     K19F01Q  C2019 03 29.86749 11 43 52.62 +01 45 41.5          20.0 VVEF156033
     K19F01Q IC2019 03 29.86768811 43 52.52 +01 46 12.6          20.4 GVEF156L01
     K19F01Q  C2019 03 29.86795 11 43 51.89 +01 45 57.3          20.0 VVEF156033
     K19F01Q  C2019 03 29.86843 11 43 51.18 +01 46 12.3          19.9 VVEF156033
     K19F01Q  C2019 03 29.86889 11 43 50.45 +01 46 27.6          19.7 VVEF156033
     K19F01Q  C2019 03 29.86936 11 43 49.74 +01 46 42.7          19.7 VVEF156033
     K19F01Q  C2019 03 29.86983 11 43 49.01 +01 46 58.0          19.8 VVEF156033
     K19F01Q KC2019 03 29.90195011 43 02.16 +02 04 28.8          20.3 GVEF156J95
     K19F01Q KC2019 03 29.91084911 42 48.38 +02 09 22.1          20.1 GVEF156J95
     K19F01Q KC2019 03 29.91976511 42 34.44 +02 14 16.2          20.7 GVEF156J95
     K19F01Q  C2019 03 30.11716 11 37 49.79 +04 05 44.8                VEF156I52
     K19F01Q  C2019 03 30.11828 11 37 47.98 +04 06 24.5          19.7 GVEF156I52
     K19F01Q  C2019 03 30.11939 11 37 46.22 +04 07 02.9          20.1 GVEF156I52
     K19F01Q  C2019 03 30.12051 11 37 44.45 +04 07 40.6                VEF156I52
     K19F01Q  C2019 03 30.81154 11 18 56.50 +10 55 29.3          20.5 VVEF156033
     K19F01Q  C2019 03 30.81198 11 18 55.72 +10 55 45.5          20.1 VVEF156033
     K19F01Q  C2019 03 30.81241 11 18 54.95 +10 56 01.7          20.5 VVEF156033
     K19F01Q  C2019 03 30.81285 11 18 54.17 +10 56 17.6          20.1 VVEF156033
     K19F01Q  C2019 03 30.81328 11 18 53.39 +10 56 33.8          20.4 VVEF156033
     K19F01Q  C2019 03 30.81372 11 18 52.62 +10 56 49.8          20.5 VVEF156033
     K19F01Q  C2019 03 30.81459 11 18 51.04 +10 57 21.7          19.7 VVEF156033
     K19F01Q  C2019 03 30.81502 11 18 50.26 +10 57 37.9          20.5 VVEF156033
     K19F01Q  C2019 03 30.81546 11 18 49.48 +10 57 54.2          20.2 VVEF156033
     K19F01Q KC2019 03 30.88151711 16 53.17 +11 39 11.0          19.7 VqEF156I93
     K19F01Q KC2019 03 30.88994711 16 37.62 +11 44 25.4          19.5 VqEF156I93
     K19F01Q  C2019 03 30.89286 11 16 28.35 +11 45 42.3          20.7 VVEF156033
     K19F01Q  C2019 03 30.89330 11 16 27.52 +11 45 59.2          20.4 VVEF156033
     K19F01Q  C2019 03 30.89375 11 16 26.70 +11 46 15.6          20.2 VVEF156033
     K19F01Q  C2019 03 30.89419 11 16 25.91 +11 46 32.1          20.4 VVEF156033
     K19F01Q  C2019 03 30.89464 11 16 25.07 +11 46 48.9          20.1 VVEF156033
     K19F01Q  C2019 03 30.89508 11 16 24.24 +11 47 05.1          20.3 VVEF156033
     K19F01Q  C2019 03 30.89552 11 16 23.43 +11 47 21.5          20.4 VVEF156033
     K19F01Q  C2019 03 30.89597 11 16 22.62 +11 47 38.3          20.5 VVEF156033
     K19F01Q  C2019 03 30.89641 11 16 21.81 +11 47 54.5          20.1 VVEF156033
     K19F01Q  C2019 03 30.89686 11 16 20.97 +11 48 11.4          20.2 VVEF156033
     K19F01Q KC2019 03 30.89947111 16 19.97 +11 50 18.6          19.7 VqEF156I93
     K19F01Q  C2019 03 31.14177 11 09 17.00 +14 22 09.2          20.2 GVEF156I52
     K19F01Q  C2019 03 31.14339 11 09 13.91 +14 23 10.9          20.3 GVEF156I52
     K19F01Q  C2019 03 31.14502 11 09 10.79 +14 24 12.3          20.3 GVEF156I52
     K19F01Q  C2019 03 31.14664 11 09 07.66 +14 25 14.0          20.9 GVEF156I52
 
Observer details:
033 Karl Schwarzschild Observatory, Tautenburg.  Observers U. Laux,
    B. Stecklum.  Measurer B. Stecklum.  1.34-m f/3 Schmidt + CCD.
G96 Mt. Lemmon Survey.  Observer B. M. Africano.  Measurers B. M. Africano,
    E. J. Christensen, G. A. Farneth, D. C. Fuls, A. R. Gibbs, A. D. Grauer,
    H. Groeller, R. A. Kowalski, S. M. Larson, G. J. Leonard, T. A. Pruyne,
    R. L. Seaman, F. C. Shelly.  1.5-m reflector + 10K CCD.
H01 Magdalena Ridge Observatory, Socorro.  Observers W. H. Ryan, E. V. Ryan.
    Measurer W. H. Ryan.  2.4-m f/8.9 Ritchey-Chretien + CCD.
I52 Steward Observatory, Mt. Lemmon Station.  Observer H. Groeller.
    Measurers B. M. Africano, E. J. Christensen, G. A. Farneth, D. C. Fuls,
    A. R. Gibbs, A. D. Grauer, H. Groeller, R. A. Kowalski, S. M. Larson,
    G. J. Leonard, T. A. Pruyne, R. L. Seaman, F. C. Shelly.  1.0-m reflector
    + CCD.
I93 St Pardon de Conques.  Observer F. Losse.  0.40-m f/3.7 reflector + CCD.
J95 Great Shefford.  Observer P. Birtwhistle.  0.41-m f/6.3
    Schmidt-Cassegrain + CCD.
L01 Visnjan Observatory, Tican.  Observers K. Korlevic, I. Lyon, G. Kervina.
    Measurer K. Korlevic.  1.0-m f/2.9 reflector + CCD.
 
Orbital elements:
2019 FQ1                                                 Earth MOID = 0.0159 AU
Epoch 2019 Apr. 27.0 TT = JDT 2458600.5                 MPC
M 263.07677              (2000.0)            P               Q
n   1.40966320     Peri.  157.28286     +0.96732017     +0.25208189
a   0.7877574      Node   188.25954     -0.25187651     +0.94292242
e   0.3548978      Incl.   10.96315     -0.02915320     +0.21760520
P   0.70           H   27.3           G   0.15           U   8
Residuals in seconds of arc
190329 G96  0.9-  0.6+    190329 033  0.4+  0.3-    190330 033  0.7+  0.1-
190329 G96 (1.8-  2.4+)   190329 033  0.6+  0.2-    190330 033  0.5+  0.3-
190329 G96  1.6+  0.9-    190329 033  0.2+  0.3+    190330 033  0.4+  0.1-
190329 G96  0.8-  0.7+    190329 033  0.5+  0.5-    190330 033  0.5+  0.0
190329 H01  0.4+  0.3-    190329 L01  0.6+  0.8+    190330 I93  0.4+  0.5-
190329 H01  0.4+  0.2-    190329 033  0.2+  0.3+    190330 I93  0.5+  0.5+
190329 H01  0.2+  0.2-    190329 033  0.7+  0.4-    190330 033  0.4+  0.6-
190329 H01  0.2+  0.2-    190329 033  0.4+  0.1-    190330 033  0.1+  0.0
190329 I52  0.4-  0.3-    190329 033  0.6+  0.4-    190330 033  0.2+  0.3-
190329 I52  0.5+  0.7-    190329 033  0.5+  0.5-    190330 033  0.6+  0.2-
190329 I52  0.6+  0.6-    190329 J95  0.2+  0.4-    190330 033  0.4+  0.1-
190329 033  0.2+  0.0     190329 J95  1.0+  0.0     190330 033  0.1+  0.2-
190329 033  0.2+  0.0     190329 J95  0.4+  0.3+    190330 033  0.1+  0.1-
190329 033  0.7+  0.4-    190330 I52 (0.4+  2.0-)   190330 033  0.4+  0.0
190329 033  0.7+  0.3-    190330 I52  0.1+  0.5-    190330 033  0.4+  0.1-
190329 033  0.5+  0.0     190330 I52  0.3+  0.1+    190330 033  0.3+  0.1+
190329 033  0.3+  0.1-    190330 I52  0.6+  0.4-    190330 I93  0.2+  0.5-
190329 033  0.3+  0.2-    190330 033  0.1+  0.1+    190331 I52  0.4+  0.4-
190329 033  0.5+  0.2-    190330 033  0.2+  0.0     190331 I52  0.7+  0.1-
190329 L01  1.9+  0.1-    190330 033  0.3+  0.3+    190331 I52  0.9+  0.5-
190329 L01  1.3+  0.2+    190330 033  0.5+  0.1-    190331 I52  0.7+  0.2-
190329 033  0.4+  0.1-    190330 033  0.4+  0.2+

Ephemeris:
2019 FQ1                 a,e,i = 0.79, 0.35, 11                  q = 0.5082
Date    TT    R. A. (2000) Decl.     Delta      r     Elong.  Phase     V
2019 03 01    14 10 12.5 -40 44 39   0.1693  1.0668   112.4    59.2    25.7
...
2019 03 16    13 53 28.6 -37 33 26   0.08911 1.0540   129.9    46.3    23.9
...
2019 03 24    13 12 17.4 -27 58 02   0.04832 1.0386   149.3    29.3    22.1
...
2019 03 30    11 40 31.7 +03 02 29   0.02547 1.0232   165.6    14.1    20.2
2019 03 31    11 13 19.1 +12 55 25   0.02395 1.0203   153.5    25.9    20.4
2019 04 01    10 41 23.1 +23 22 36   0.02359 1.0173   140.1    39.0    20.8
...
2019 04 07    06 56 46.6 +55 02 57   0.04057 0.9974    84.0    93.7    23.7
...
2019 04 15    04 45 59.6 +55 12 37   0.07855 0.9657    59.6   116.4    26.3
...
2019 04 30    03 37 38.6 +50 27 11   0.1560  0.8907    38.7   135.0    29.3

A. U. Tomatic                (C) Copyright 2019 MPC           M.P.E.C. 2019-F156



More information about the Iaude mailing list